Location: Charlottesville
(38.0290°N, 78.4770°W)
Time: 00:20:05
(UTC-04:00)

Vanguard 2 - Visible Passes

Search period start: 23 October 2017 00:00
Search period end: 02 November 2017 00:00
Orbit: 554 x 2939 km, 32.9° (Epoch: 22 October)

Date Brightness Start Highest point End Pass type
(mag) Time Alt. Az. Time Alt. Az. Time Alt. Az.
23 Oct 11.7 05:25:44 10° S 05:38:11 24° SE 05:49:11 10° E visible
24 Oct 11.5 05:41:54 10° SSW 05:56:12 31° SE 06:08:30 10° E visible
25 Oct 11.9 03:55:44 10° SSE 04:03:30 14° SE 04:11:08 10° ESE visible
25 Oct 11.3 05:58:40 10° SSW 06:14:13 38° SSE 06:27:20 10° E visible
26 Oct 11.7 04:10:06 10° S 04:21:19 21° SE 04:32:17 10° E visible
26 Oct 11.0 06:15:51 10° SW 06:32:18 46° SSE 06:45:55 10° E visible
27 Oct 11.5 04:25:52 10° S 04:39:09 28° SE 04:52:03 10° E visible
27 Oct 10.9 06:33:22 10° SW 06:50:26 54° SSE 07:04:19 10° E visible
28 Oct 11.8 02:44:27 10° SE 02:46:57 10° SE 02:49:28 10° ESE visible
28 Oct 11.2 04:42:43 11° SSW 04:57:00 35° SE 05:11:10 10° E visible
28 Oct 10.7 06:51:09 10° SW 07:08:38 60° SSE 07:22:38 10° E visible
29 Oct 11.6 02:59:12 14° SSE 03:04:35 17° SE 03:13:48 10° ESE visible
29 Oct 11.0 05:00:42 13° SSW 05:14:55 43° SSE 05:29:55 10° E visible
29 Oct 10.6 07:09:07 10° WSW 07:26:53 66° SSE 07:40:52 10° E visible
30 Oct 11.4 03:17:03 20° SSE 03:22:12 23° SE 03:34:21 10° E visible
30 Oct 10.8 05:18:32 15° SW 05:32:56 50° SSE 05:48:27 10° E visible
31 Oct 11.1 03:34:47 26° SSE 03:39:52 30° SE 03:53:54 10° E visible
31 Oct 10.7 05:36:16 15° SW 05:51:02 58° SSE 06:06:52 10° E visible
01 Nov 11.8 01:50:56 11° ESE 01:50:56 11° ESE 01:52:26 10° ESE visible
01 Nov 10.9 03:52:24 32° S 03:57:36 38° SE 04:12:55 10° E visible
01 Nov 10.6 05:53:52 15° WSW 06:09:13 64° SSE 06:25:13 10° E visible
